#timestamp,LO_Frequency,Hit,StdDev 
1629460815.7,286046999.2,N
1629460835.6,286046999.3,N
1629460855.4,286046996.6,Y
1629460875.2,286047000.5,P
1629460895.1,286047000.6,N
1629460896.0,286047000.6,N
1629460915.8,286046998.6,N
1629460935.7,286046999.3,N
1629460955.5,286046999.3,N
1629460975.3,286046999.6,N
1629460995.2,286046996.8,Y
1629461015.0,286046998.1,P
1629461015.9,286046998.1,N
1629461035.8,286046998.7,N
1629461055.6,286046998.3,N
1629461075.4,286047002.6,Y
1629461095.3,286047003.1,P
1629461115.1,286047005.1,N
1629461135.8,286047007.6,N
1629461155.7,286047006.8,N
1629461175.5,286047007.6,N
1629461195.4,286047002.9,N
1629461215.2,286047007.1,N
1629461235.0,286047005.1,N
1629461235.9,286047005.1,N
1629461255.8,286047009.2,Y
1629461275.6,286047003.9,P
1629461295.4,286047003.1,P
1629461315.3,286047002.9,P
1629461335.1,286047005.8,Y
1629461355.9,286046999.7,P
1629461375.7,286047000.7,N
1629461395.5,286047001.2,N
1629461415.4,286047000.6,N
1629461435.2,286047000.9,N
1629461455.1,286047000.3,N
1629461456.0,286047000.3,N
1629461475.8,286047000.5,N
1629461495.6,286046999.9,N
1629461515.5,286047002.6,N
1629461535.3,286047001.9,N
1629461555.1,286047001.7,N
1629461575.9,286047001.7,N
1629461595.7,286047001.9,N
1629461615.6,286047002.1,N
1629461635.4,286047002.3,N
1629461655.2,286047002.8,N
1629461675.1,286047002.0,N
1629461676.0,286047002.0,N
1629461695.8,286047004.2,Y
1629461715.7,286047002.3,P
1629461735.5,286047001.0,N
1629461755.3,286046998.5,N
1629461775.2,286047000.8,N
1629461795.0,286046998.5,N
1629461795.9,286046998.5,N
1629461815.8,286046999.1,N
1629461835.6,286046998.7,N
1629461855.4,286046998.3,N
1629461875.3,286046998.6,N
1629461895.1,286046998.1,N
1629461915.8,286046998.7,N
1629461935.7,286046999.3,N
1629461955.5,286046996.6,N
1629461975.4,286046997.5,N
1629461995.2,286046996.2,N
1629462015.0,286046995.7,N
1629462015.9,286046995.7,N
1629462035.8,286046993.5,Y
1629462055.6,286046995.7,P
1629462075.5,286046996.1,N
1629462095.3,286046994.0,P
1629462115.1,286046993.5,Y
1629462135.9,286046997.4,P
1629462155.7,286046997.2,P
1629462175.6,286046996.5,P
1629462195.4,286046996.7,Y
1629462215.2,286047000.0,P
1629462235.1,286047000.3,N
1629462236.0,286047000.3,N
1629462255.8,286047000.8,N
1629462275.6,286047001.1,N
1629462295.5,286047001.1,N
1629462315.3,286046998.5,N
1629462335.2,286046999.1,N
1629462355.9,286046998.7,N
1629462375.7,286046999.4,N
1629462395.6,286046996.6,N
1629462415.4,286046997.7,N
1629462435.3,286046997.5,N
1629462455.1,286046997.6,N
1629462456.0,286046997.6,N
1629462475.8,286046998.0,N
1629462495.7,286046995.7,N
1629462515.5,286046995.1,Y
1629462535.4,286046997.0,P
1629462555.2,286046995.3,P
1629462575.0,286046998.0,N
1629462575.9,286046998.0,N
1629462595.8,286046996.8,N
1629462615.6,286046997.3,N
1629462635.4,286046999.1,N
1629462655.3,286046999.1,N
1629462675.1,286046996.6,N
1629462695.9,286046997.3,N
1629462715.7,286046999.0,N
1629462735.5,286046997.0,N
1629462755.4,286046999.1,N
1629462775.2,286046997.2,N
1629462795.0,286046996.7,Y
1629462796.0,286046996.7,P
1629462815.8,286047000.7,N
1629462835.6,286047001.1,N
1629462855.5,286047000.6,N
1629462875.3,286047000.4,N
1629462895.1,286046998.5,N
1629462915.9,286047001.2,N
1629462935.7,286046998.4,N
1629462955.6,286046999.0,N
1629462975.4,286047000.8,N
1629462995.2,286047000.5,N
1629463015.1,286047001.2,N
1629463016.0,286047001.2,N
1629463035.8,286047000.8,N
1629463055.6,286046999.8,N
1629463075.5,286047000.0,N
1629463095.3,286047002.5,N
1629463115.2,286047004.3,Y
1629463135.9,286047001.5,P
1629463155.7,286047002.1,N
1629463175.6,286047001.8,N
1629463195.4,286047001.9,N
1629463215.3,286047001.8,N
1629463235.1,286047001.8,N
1629463236.0,286047001.8,N
1629463255.8,286047002.0,Y
1629463275.7,286047000.3,P
1629463295.5,286047000.0,N
1629463315.3,286047000.7,N
1629463335.2,286047001.5,N
1629463355.0,286047001.3,N
1629463355.9,286047001.3,N
1629463375.8,286047003.5,Y
1629463395.6,286047002.9,P
1629463415.4,286047003.2,P
1629463435.3,286047004.3,P
1629463455.1,286047001.6,N
1629463475.8,286047002.1,N
1629463495.7,286046999.8,N
1629463515.5,286047000.6,N
1629463535.4,286047000.1,N
1629463555.2,286047000.3,N
1629463575.0,286046999.9,N
1629463575.9,286046999.9,N
1629463595.8,286047002.7,N
1629463615.6,286047000.2,N
1629463635.5,286046998.6,N
1629463655.3,286046999.0,N
1629463675.1,286046999.4,N
1629463695.9,286046999.0,N
1629463715.7,286046998.2,N
1629463735.5,286047000.5,N
1629463755.4,286047001.1,N
1629463775.2,286047000.6,N
1629463795.1,286047000.5,N
1629463796.0,286047000.5,N
1629463815.8,286047000.8,N
1629463835.7,286046998.9,N
1629463855.5,286047000.6,N
1629463875.3,286047002.5,N
1629463895.2,286047002.5,N
1629463915.0,286047002.0,N
1629463915.9,286047002.0,N
1629463935.8,286047003.5,N
1629463955.6,286047003.3,N
1629463975.4,286047006.0,Y
1629463995.3,286047003.3,P
1629464015.1,286047003.2,N
1629464035.9,286047004.1,P
1629464055.7,286047003.4,N
1629464075.5,286047003.6,Y
1629464095.4,286046999.8,P
1629464115.2,286046999.8,N
1629464135.1,286046999.7,N
1629464136.0,286046999.7,N
1629464155.8,286047002.2,N
1629464175.6,286047000.4,N
1629464195.5,286047000.4,N
1629464215.3,286046999.9,N
1629464235.1,286047000.3,N
1629464255.9,286046999.7,N
1629464275.7,286047000.5,N
1629464295.6,286047002.7,N
1629464315.4,286047000.1,N
1629464335.2,286047002.2,N
1629464355.1,286047002.4,N
1629464356.0,286047002.4,N
1629464375.8,286047000.1,N
1629464395.7,286047002.2,N
